Weather History for KGLW - March, 2014

Change the Weather History Date:

Wednesday, March 26, 2014

  Actual Average Record
Temperature  
Mean Temperature 30 °F -  
Max Temperature 44 °F 60 °F 82 °F (2007)
Min Temperature 16 °F 36 °F 14 °F (1955)
Degree Days  
Heating Degree Days 35    
Moisture  
Dew Point 14 °F    
Average Humidity 55    
Maximum Humidity 89    
Minimum Humidity 26    
Precipitation  
Precipitation 0.00 in - - ()
Sea Level Pressure  
Sea Level Pressure 30.30 in    
Wind  
Wind Speed 1 mph (ESE)    
Max Wind Speed 7 mph    
Max Gust Speed -    
Visibility 10 miles    
Events      
Averages and records for this station are not official NWS values.
T = Trace of Precipitation, MM = Missing Value Source: NWS Daily Summary

Daily Weather History Graph

Daily Weather History Graph

Search for Another Location

Airport or City:

Trip Planner

Search our weather history database for the weather conditions in past years. The results will help you decide how hot, cold, wet, or windy it might be!

Date:

Astronomy

Mar. 26, 2014 Rise Set
Actual Time 6:38 AM CDT 7:01 PM CDT
Civil Twilight 6:12 AM CDT 7:27 PM CDT
Nautical Twilight 5:41 AM CDT 7:57 PM CDT
Astronomical Twilight 5:10 AM CDT 8:28 PM CDT
Moon 3:40 AM CDT (3/26) 2:44 PM CDT (3/26)
Length of Visible Light 13h 14m
Length of Day
12h 22m
Waning Crescent, 21% of the Moon is Illuminated
Mar 26
Waning Crescent
Mar 30
New
Apr 7
First Quarter
Apr 15
Full
Apr 22
Last Quarter

Hourly Weather History & Observations

Time (CDT) Temp. Windchill Dew Point Humidity Pressure Visibility Wind Dir Wind Speed Gust Speed Precip Events Conditions
12:15 AM 23.7 °F - 16.7 °F 75% 30.26 in 10.0 mi Calm Calm - N/A   Clear
12:35 AM 22.6 °F - 16.0 °F 76% 30.27 in 10.0 mi Calm Calm - N/A   Clear
12:55 AM 23.9 °F - 16.0 °F 72% 30.27 in 10.0 mi Calm Calm - N/A   Clear
1:15 AM 23.2 °F - 15.8 °F 73% 30.27 in 10.0 mi Calm Calm - N/A   Clear
1:35 AM 21.6 °F - 15.1 °F 76% 30.27 in 10.0 mi Calm Calm - N/A   Clear
1:55 AM 21.4 °F - 15.1 °F 77% 30.28 in 10.0 mi Calm Calm - N/A   Clear
2:15 AM 20.7 °F - 15.1 °F 79% 30.28 in 10.0 mi Calm Calm - N/A   Clear
2:35 AM 21.7 °F - 15.1 °F 76% 30.27 in 10.0 mi Calm Calm - N/A   Clear
2:55 AM 21.4 °F - 14.9 °F 76% 30.27 in 10.0 mi Calm Calm - N/A   Clear
3:15 AM 21.2 °F - 14.2 °F 74% 30.27 in 10.0 mi Calm Calm - N/A   Clear
3:35 AM 19.8 °F - 13.1 °F 75% 30.28 in 10.0 mi Calm Calm - N/A   Clear
3:55 AM 18.7 °F - 14.0 °F 82% 30.28 in 10.0 mi Calm Calm - N/A   Clear
4:15 AM 19.2 °F - 16.0 °F 87% 30.28 in 10.0 mi Calm Calm - N/A   Clear
4:35 AM 18.5 °F - 15.4 °F 88% 30.29 in 10.0 mi Calm Calm - N/A   Clear
4:55 AM 18.3 °F - 13.6 °F 82% 30.30 in 10.0 mi Calm Calm - N/A   Clear
5:15 AM 18.0 °F - 13.5 °F 83% 30.30 in 10.0 mi Calm Calm - N/A   Clear
5:35 AM 17.4 °F - 12.7 °F 82% 30.32 in 10.0 mi Calm Calm - N/A   Clear
5:55 AM 16.3 °F - 12.2 °F 84% 30.33 in 10.0 mi Calm Calm - N/A   Clear
6:15 AM 17.2 °F - 14.2 °F 88% 30.34 in 10.0 mi Calm Calm - N/A   Clear
6:35 AM 17.4 °F - 14.7 °F 89% 30.35 in 10.0 mi Calm Calm - N/A   Clear
6:55 AM 17.6 °F - 14.2 °F 86% 30.35 in 10.0 mi Calm Calm - N/A   Clear
7:15 AM 17.6 °F - 13.8 °F 85% 30.35 in 10.0 mi Calm Calm - N/A   Clear
7:35 AM 19.9 °F - 16.2 °F 85% 30.35 in 10.0 mi Calm Calm - N/A   Clear
7:55 AM 22.8 °F - 18.1 °F 82% 30.36 in 10.0 mi Calm Calm - N/A   Clear
8:15 AM 25.5 °F - 17.6 °F 72% 30.37 in 10.0 mi Calm Calm - N/A   Clear
8:35 AM 28.0 °F 24.2 °F 14.0 °F 56% 30.38 in 10.0 mi NNE 3.5 mph - N/A   Clear
8:55 AM 28.9 °F 23.9 °F 12.7 °F 51% 30.38 in 10.0 mi ENE 4.6 mph - N/A   Clear
9:15 AM 29.7 °F 23.7 °F 12.6 °F 49% 30.39 in 10.0 mi North 5.8 mph - N/A   Clear
9:35 AM 30.4 °F 25.6 °F 12.6 °F 48% 30.39 in 10.0 mi NE 4.6 mph - N/A   Clear
9:55 AM 31.3 °F 26.6 °F 12.6 °F 46% 30.39 in 10.0 mi East 4.6 mph - N/A   Clear
10:15 AM 31.8 °F - 12.2 °F 44% 30.40 in 10.0 mi Calm Calm - N/A   Clear
10:35 AM 32.0 °F 25.6 °F 11.5 °F 43% 30.40 in 10.0 mi East 6.9 mph - N/A   Clear
10:55 AM 32.4 °F - 11.3 °F 42% 30.39 in 10.0 mi Calm Calm - N/A   Clear
11:15 AM 33.8 °F - 11.3 °F 39% 30.39 in 10.0 mi Calm Calm - N/A   Clear
11:35 AM 34.9 °F 32.0 °F 11.1 °F 37% 30.39 in 10.0 mi ESE 3.5 mph - N/A   Clear
11:55 AM 35.4 °F - 11.1 °F 37% 30.38 in 10.0 mi Calm Calm - N/A   Clear
12:15 PM 36.1 °F 32.3 °F 10.9 °F 35% 30.38 in 10.0 mi NNW 4.6 mph - N/A   Clear
12:35 PM 37.0 °F 32.4 °F 11.1 °F 34% 30.37 in 10.0 mi NW 5.8 mph - N/A   Clear
12:55 PM 37.6 °F 34.0 °F 11.5 °F 34% 30.37 in 10.0 mi North 4.6 mph - N/A   Clear
1:15 PM 38.1 °F 35.7 °F 11.8 °F 34% 30.35 in 10.0 mi SE 3.5 mph - N/A   Clear
1:35 PM 39.4 °F 35.2 °F 12.4 °F 33% 30.35 in 10.0 mi South 5.8 mph - N/A   Clear
1:55 PM 39.9 °F 36.7 °F 12.2 °F 32% 30.34 in 10.0 mi SE 4.6 mph - N/A   Clear
2:15 PM 40.1 °F - 10.2 °F 29% 30.33 in 10.0 mi Calm Calm - N/A   Clear
2:35 PM 41.4 °F 39.4 °F 11.3 °F 29% 30.31 in 10.0 mi SSW 3.5 mph - N/A   Clear
2:55 PM 42.1 °F 40.2 °F 12.4 °F 30% 30.29 in 10.0 mi South 3.5 mph - N/A   Clear
3:15 PM 43.0 °F - 12.4 °F 29% 30.29 in 10.0 mi Calm Calm - N/A   Clear
3:35 PM 43.2 °F 39.7 °F 11.8 °F 28% 30.29 in 10.0 mi SSW 5.8 mph - N/A   Clear
3:55 PM 43.7 °F 42.1 °F 11.8 °F 27% 30.27 in 10.0 mi South 3.5 mph - N/A   Clear
4:15 PM 43.7 °F 41.1 °F 11.8 °F 27% 30.26 in 10.0 mi SSE 4.6 mph - N/A   Clear
4:35 PM 43.7 °F - 11.7 °F 27% 30.26 in 10.0 mi Calm Calm - N/A   Clear
4:55 PM 44.1 °F - 11.5 °F 27% 30.25 in 10.0 mi Calm Calm - N/A   Clear
5:35 PM 44.1 °F 41.5 °F 11.1 °F 26% 30.25 in 10.0 mi SSE 4.6 mph - N/A   Clear
5:55 PM 43.9 °F 41.3 °F 10.4 °F 26% 30.25 in 10.0 mi South 4.6 mph - N/A   Clear
6:15 PM 43.5 °F 41.9 °F 11.5 °F 27% 30.25 in 10.0 mi South 3.5 mph - N/A   Clear
6:35 PM 42.4 °F - 12.4 °F 29% 30.25 in 10.0 mi Calm Calm - N/A   Clear
6:55 PM 41.9 °F - 11.5 °F 29% 30.24 in 10.0 mi Calm Calm - N/A   Clear
7:15 PM 40.1 °F - 12.0 °F 32% 30.23 in 10.0 mi Calm Calm - N/A   Clear
7:35 PM 38.5 °F 36.1 °F 13.3 °F 36% 30.23 in 10.0 mi East 3.5 mph - N/A   Clear
7:55 PM 37.2 °F 33.6 °F 14.0 °F 39% 30.22 in 10.0 mi East 4.6 mph - N/A   Clear
8:35 PM 35.1 °F 32.2 °F 16.2 °F 46% 30.23 in 10.0 mi East 3.5 mph - N/A   Clear
8:55 PM 34.7 °F - 16.7 °F 48% 30.23 in 10.0 mi Calm Calm - N/A   Clear
9:15 PM 33.6 °F - 17.2 °F 51% 30.23 in 10.0 mi Calm Calm - N/A   Clear
9:35 PM 32.7 °F - 18.1 °F 55% 30.23 in 10.0 mi Calm Calm - N/A   Clear
9:55 PM 32.7 °F - 17.8 °F 54% 30.24 in 10.0 mi Calm Calm - N/A   Clear
10:15 PM 32.0 °F - 18.9 °F 58% 30.23 in 10.0 mi Calm Calm - N/A   Clear
10:35 PM 31.5 °F 28.1 °F 19.2 °F 61% 30.23 in 10.0 mi ENE 3.5 mph - N/A   Clear
10:55 PM 30.6 °F 25.8 °F 19.6 °F 64% 30.22 in 10.0 mi East 4.6 mph - N/A   Clear
11:15 PM 31.3 °F 27.9 °F 20.1 °F 63% 30.21 in 10.0 mi East 3.5 mph - N/A   Clear
11:35 PM 31.5 °F - 20.8 °F 65% 30.21 in 10.0 mi Calm Calm - N/A   Clear
11:55 PM 31.5 °F - 21.4 °F 66% 30.21 in 10.0 mi Calm Calm - N/A   Clear